Flag for Canada Weather past 2 weeks in Vancouver, British Columbia, Canada

55 °F

Light rain. Passing clouds.

Feels Like: 53 °F
Forecast: 56 / 61 °F
Wind: 10 mph from East

Location: Vancouver International Airport

Current Time: Oct 7, 2015 at 4:01:26 AM

Latest Report: Oct 7, 2015 at 3:00 AM

Visibility: 20 mi

Pressure: 30.08 "Hg

Humidity: 94%

Dew point: 54 °F

Location of VancouverLocation

Historic Weather in Vancouver — Graph


Vancouver temperature yesterday

Maximum temperature yesterday: 63 °F (at 12:00 PM)
Minimum temperature yesterday: 48 °F (at 12:00 AM)
Average temperature yesterday: 56 °F

Past Weeks' High & Low Weather Summary

High63 °F (Sep 23, 1:00 PM)100% (Sep 25, 10:00 PM)30.24 "Hg (Sep 25, 10:00 PM)
Low43 °F (Sep 27, 5:00 AM)45% (Sep 23, 3:00 PM)29.87 "Hg (Oct 5, 7:00 PM)
Average54 °F85%30.03 "Hg
* Reported Sep 22 3:00 AM — Oct 7 3:00 AM, Vancouver, Weather by CustomWeather, © 2015

Note: Actual official high and low records may vary slightly from our data, if they occured in-between our weather recording intervals... More about our weather records


Vancouver weather history for previous 24 hours

Time TempWeatherWind HumidityBarometerVisibility
3:00 AM
Wed, Oct 7
55 °FLight rain. Passing clouds.10 mph94%30.08 "Hg20 mi
2:00 AM55 °FPassing clouds.9 mph94%30.07 "Hg20 mi
1:00 AM55 °FLight rain. Passing clouds.9 mph94%30.07 "Hg20 mi
12:00 AM57 °FPartly cloudy.10 mph88%30.07 "Hg20 mi
11:00 PM
Tue, Oct 6
57 °FLight rain. Passing clouds.9 mph88%30.06 "Hg20 mi
10:00 PM57 °FLight rain. Passing clouds.9 mph88%30.06 "Hg20 mi
9:00 PM57 °FLight rain. Passing clouds.9 mph82%30.05 "Hg20 mi
8:00 PM57 °FLight rain. Passing clouds.12 mph82%30.03 "Hg20 mi
7:00 PM59 °FPartly sunny.12 mph72%30.01 "Hg20 mi
6:00 PM59 °FPartly sunny.13 mph72%30.01 "Hg20 mi
5:00 PM61 °FBroken clouds.15 mph72%30.00 "Hg20 mi
4:00 PM61 °FBroken clouds.10 mph72%30.00 "Hg20 mi
3:00 PM63 °FPartly sunny.13 mph64%29.98 "Hg20 mi
2:00 PM63 °FMostly cloudy.5 mph64%29.99 "Hg20 mi
1:00 PM59 °FPartly sunny.8 mph82%29.99 "Hg20 mi
12:00 PM63 °FPartly sunny.5 mph64%29.98 "Hg20 mi
11:00 AM61 °FBroken clouds.No wind68%29.99 "Hg20 mi
10:00 AM57 °FBroken clouds.6 mph77%29.97 "Hg20 mi
9:00 AM54 °FBroken clouds.9 mph94%29.97 "Hg20 mi
8:52 AM54 °FBroken clouds.9 mph88%29.96 "Hg20 mi
8:00 AM54 °FPassing clouds.8 mph88%29.94 "Hg20 mi
7:00 AM50 °FPartly cloudy.2 mph94%29.95 "Hg20 mi
6:00 AM48 °FPassing clouds.6 mph100%29.93 "Hg20 mi
5:00 AM50 °FPassing clouds.3 mph88%29.91 "Hg20 mi
4:00 AM48 °FPassing clouds.5 mph94%29.91 "Hg20 mi
Weather by CustomWeather, © 2015

See weather overviewHow to use our weather pages